Location: Davayat
(45.9471°N, 3.1105°E)
Time: 22:30:05
(UTC+00:00)

Meteor 2-12 Rocket - Pass Details

Date: 21 April 2021
Orbit: 935 x 958 km, 82.5° (Epoch: 16 May)

Event Time Altitude Azimuth Distance (km) Brightness Sun altitude
Rises 01:32:33 0° 338° (NNW) 3,630 8.0 -27.4°
Reaches altitude 10° 01:35:41 10° 323° (NW) 2,676 7.0 -27.2°
Enters shadow 01:39:09 20° 288° (WNW) 2,055 6.0 -26.8°
